Time,TemperatureF,DewpointF,PressureIn,WindDirection,WindDirectionDegrees,WindSpeedMPH,WindSpeedGustMPH,Humidity,HourlyPrecipIn,Conditions,Clouds,dailyrainin,SoftwareType,DateUTC
2013-02-04 00:06:00,24.6,21.0,30.06,NW,304,0.0,-999.0,86,-99.99,,,0.00,weatherlink.com 1.10,2013-02-04 06:06:00,
2013-02-04 00:21:00,24.7,21.0,30.05,WNW,303,0.0,-999.0,85,-99.99,,,0.00,weatherlink.com 1.10,2013-02-04 06:21:00,
2013-02-04 00:36:00,24.7,21.0,30.04,SW,232,0.0,-999.0,86,-99.99,,,0.00,weatherlink.com 1.10,2013-02-04 06:36:00,
2013-02-04 00:51:00,24.6,21.0,30.03,SSE,157,0.0,-999.0,87,-99.99,,,0.00,weatherlink.com 1.10,2013-02-04 06:51:00,
2013-02-04 01:06:00,24.5,21.0,30.01,ESE,112,0.0,-999.0,87,-99.99,,,0.00,weatherlink.com 1.10,2013-02-04 07:06:00,
2013-02-04 01:21:00,24.6,21.0,30.00,ESE,110,0.0,-999.0,87,-99.99,,,0.00,weatherlink.com 1.10,2013-02-04 07:21:00,
2013-02-04 01:36:00,24.8,22.0,30.00,SE,133,0.0,-999.0,87,-99.99,,,0.00,weatherlink.com 1.10,2013-02-04 07:36:00,
2013-02-04 01:51:00,24.9,22.0,30.00,SE,134,0.0,-999.0,87,-99.99,,,0.00,weatherlink.com 1.10,2013-02-04 07:51:00,
2013-02-04 02:06:00,25.0,21.0,29.99,SE,133,0.0,-999.0,86,-99.99,,,0.00,weatherlink.com 1.10,2013-02-04 08:06:00,
2013-02-04 02:21:00,25.1,22.0,29.98,SE,133,0.0,-999.0,86,-99.99,,,0.00,weatherlink.com 1.10,2013-02-04 08:21:00,
2013-02-04 02:36:00,25.1,22.0,29.97,SE,142,0.0,-999.0,86,-99.99,,,0.00,weatherlink.com 1.10,2013-02-04 08:36:00,
2013-02-04 02:51:00,25.1,22.0,29.97,SE,146,0.0,-999.0,86,-99.99,,,0.00,weatherlink.com 1.10,2013-02-04 08:51:00,
2013-02-04 03:06:00,25.3,22.0,29.96,SSE,150,0.0,-999.0,86,-99.99,,,0.00,weatherlink.com 1.10,2013-02-04 09:06:00,
2013-02-04 03:21:00,25.3,22.0,29.95,SSE,148,0.0,-999.0,86,-99.99,,,0.00,weatherlink.com 1.10,2013-02-04 09:21:00,
2013-02-04 03:36:00,25.3,22.0,29.94,SSE,157,0.0,-999.0,86,-99.99,,,0.00,weatherlink.com 1.10,2013-02-04 09:36:00,
2013-02-04 03:51:00,25.4,22.0,29.93,SSE,150,0.0,-999.0,86,-99.99,,,0.00,weatherlink.com 1.10,2013-02-04 09:51:00,
2013-02-04 04:06:00,25.5,22.0,29.92,SSE,155,0.0,-999.0,85,-99.99,,,0.00,weatherlink.com 1.10,2013-02-04 10:06:00,
2013-02-04 04:21:00,25.7,22.0,29.92,SSE,153,0.0,-999.0,84,-99.99,,,0.00,weatherlink.com 1.10,2013-02-04 10:21:00,
2013-02-04 04:36:00,25.8,21.0,29.91,SSE,155,0.0,-999.0,83,-99.99,,,0.00,weatherlink.com 1.10,2013-02-04 10:36:00,
2013-02-04 04:51:00,25.8,22.0,29.90,SE,146,0.0,-999.0,84,-99.99,,,0.00,weatherlink.com 1.10,2013-02-04 10:51:00,
2013-02-04 05:06:00,25.8,21.0,29.90,SE,137,0.0,-999.0,83,-99.99,,,0.00,weatherlink.com 1.10,2013-02-04 11:06:00,
2013-02-04 05:21:00,25.8,22.0,29.89,SE,142,0.0,-999.0,84,-99.99,,,0.00,weatherlink.com 1.10,2013-02-04 11:21:00,
2013-02-04 05:36:00,25.7,22.0,29.88,SE,135,0.0,-999.0,84,-99.99,,,0.00,weatherlink.com 1.10,2013-02-04 11:36:00,
2013-02-04 05:51:00,26.1,22.0,29.88,SE,138,0.0,-999.0,83,-99.99,,,0.00,weatherlink.com 1.10,2013-02-04 11:51:00,
2013-02-04 06:06:00,26.2,22.0,29.88,SE,136,0.0,-999.0,83,-99.99,,,0.00,weatherlink.com 1.10,2013-02-04 12:06:00,
2013-02-04 06:21:00,26.4,22.0,29.89,SSE,150,0.0,-999.0,83,-99.99,,,0.00,weatherlink.com 1.10,2013-02-04 12:21:00,
2013-02-04 06:36:00,26.5,22.0,29.87,SSE,153,0.0,-999.0,82,-99.99,,,0.00,weatherlink.com 1.10,2013-02-04 12:36:00,
2013-02-04 06:51:00,26.6,22.0,29.86,SSE,158,0.0,-999.0,82,-99.99,,,0.00,weatherlink.com 1.10,2013-02-04 12:51:00,
2013-02-04 07:06:00,26.6,22.0,29.86,SSE,156,0.0,-999.0,82,-99.99,,,0.00,weatherlink.com 1.10,2013-02-04 13:06:00,
2013-02-04 07:21:00,26.6,22.0,29.87,ESE,122,0.0,-999.0,83,-99.99,,,0.00,weatherlink.com 1.10,2013-02-04 13:21:00,
2013-02-04 07:36:00,26.7,23.0,29.87,ESE,111,0.0,-999.0,84,-99.99,,,0.00,weatherlink.com 1.10,2013-02-04 13:36:00,
2013-02-04 07:51:00,26.9,23.0,29.86,ESE,108,0.0,-999.0,84,-99.99,,,0.00,weatherlink.com 1.10,2013-02-04 13:51:00,
2013-02-04 08:06:00,27.0,23.0,29.86,ESE,104,0.0,-999.0,84,-99.99,,,0.00,weatherlink.com 1.10,2013-02-04 14:06:00,
2013-02-04 08:21:00,27.3,23.0,29.87,East,94,0.0,-999.0,84,-99.99,,,0.00,weatherlink.com 1.10,2013-02-04 14:21:00,
2013-02-04 08:36:00,27.7,24.0,29.86,ESE,112,0.0,-999.0,84,-99.99,,,0.00,weatherlink.com 1.10,2013-02-04 14:36:00,
2013-02-04 08:51:00,28.1,24.0,29.86,ESE,113,0.0,-999.0,84,-99.99,,,0.00,weatherlink.com 1.10,2013-02-04 14:51:00,
2013-02-04 09:06:00,28.5,24.0,29.86,ESE,110,0.0,-999.0,83,-99.99,,,0.00,weatherlink.com 1.10,2013-02-04 15:06:00,
2013-02-04 09:21:00,28.8,24.0,29.86,ESE,111,0.0,-999.0,83,-99.99,,,0.00,weatherlink.com 1.10,2013-02-04 15:21:00,
2013-02-04 09:36:00,29.4,25.0,29.86,ESE,117,0.0,-999.0,82,-99.99,,,0.00,weatherlink.com 1.10,2013-02-04 15:36:00,
2013-02-04 09:51:00,30.0,25.0,29.86,SE,134,0.0,-999.0,81,-99.99,,,0.00,weatherlink.com 1.10,2013-02-04 15:51:00,
2013-02-04 10:06:00,30.4,26.0,29.86,East,98,0.0,-999.0,82,-99.99,,,0.00,weatherlink.com 1.10,2013-02-04 16:06:00,
2013-02-04 10:21:00,30.5,25.0,29.86,ESE,119,0.0,-999.0,81,-99.99,,,0.00,weatherlink.com 1.10,2013-02-04 16:21:00,
2013-02-04 10:36:00,31.1,26.0,29.86,ESE,105,0.0,-999.0,81,-99.99,,,0.00,weatherlink.com 1.10,2013-02-04 16:36:00,
2013-02-04 10:51:00,31.6,26.0,29.87,ESE,108,0.0,-999.0,79,-99.99,,,0.01,weatherlink.com 1.10,2013-02-04 16:51:00,
2013-02-04 11:06:00,32.5,26.0,29.86,East,96,0.0,-999.0,78,-99.99,,,0.01,weatherlink.com 1.10,2013-02-04 17:06:00,
2013-02-04 11:21:00,32.5,26.0,29.86,East,84,0.0,-999.0,78,-99.99,,,0.01,weatherlink.com 1.10,2013-02-04 17:21:00,
2013-02-04 11:36:00,33.0,27.0,29.85,East,79,0.0,-999.0,78,-99.99,,,0.01,weatherlink.com 1.10,2013-02-04 17:36:00,
2013-02-04 11:51:00,33.1,27.0,29.85,East,79,0.0,-999.0,77,-99.99,,,0.01,weatherlink.com 1.10,2013-02-04 17:51:00,
2013-02-04 12:06:00,33.0,27.0,29.85,East,79,0.0,-999.0,77,-99.99,,,0.01,weatherlink.com 1.10,2013-02-04 18:06:00,
2013-02-04 12:21:00,32.6,27.0,29.86,North,360,0.0,-999.0,79,-99.99,,,0.01,weatherlink.com 1.10,2013-02-04 18:21:00,
2013-02-04 12:36:00,32.4,27.0,29.84,North,360,0.0,-999.0,80,-99.99,,,0.01,weatherlink.com 1.10,2013-02-04 18:36:00,
2013-02-04 12:51:00,32.3,27.0,29.85,North,360,0.0,-999.0,81,-99.99,,,0.01,weatherlink.com 1.10,2013-02-04 18:51:00,
2013-02-04 13:06:00,32.0,27.0,29.86,North,360,0.0,-999.0,80,-99.99,,,0.01,weatherlink.com 1.10,2013-02-04 19:06:00,
2013-02-04 13:21:00,31.7,27.0,29.86,North,5,0.0,-999.0,82,-99.99,,,0.01,weatherlink.com 1.10,2013-02-04 19:21:00,
2013-02-04 13:36:00,31.2,26.0,29.87,NNE,27,0.0,-999.0,82,-99.99,,,0.01,weatherlink.com 1.10,2013-02-04 19:36:00,
2013-02-04 13:51:00,30.7,26.0,29.88,North,351,0.0,-999.0,82,-99.99,,,0.01,weatherlink.com 1.10,2013-02-04 19:51:00,
2013-02-04 14:06:00,30.5,26.0,29.88,NNE,18,0.0,-999.0,82,-99.99,,,0.01,weatherlink.com 1.10,2013-02-04 20:06:00,
2013-02-04 14:21:00,30.5,26.0,29.89,NNE,19,0.0,-999.0,83,-99.99,,,0.01,weatherlink.com 1.10,2013-02-04 20:21:00,
2013-02-04 14:36:00,30.3,26.0,29.89,North,355,0.0,-999.0,83,-99.99,,,0.01,weatherlink.com 1.10,2013-02-04 20:36:00,
2013-02-04 14:51:00,30.2,26.0,29.89,North,355,0.0,-999.0,84,-99.99,,,0.01,weatherlink.com 1.10,2013-02-04 20:51:00,
2013-02-04 15:06:00,30.2,26.0,29.88,North,355,0.0,-999.0,85,-99.99,,,0.01,weatherlink.com 1.10,2013-02-04 21:06:00,
2013-02-04 15:21:00,30.0,26.0,29.88,North,11,0.0,-999.0,85,-99.99,,,0.01,weatherlink.com 1.10,2013-02-04 21:21:00,
2013-02-04 15:36:00,29.7,26.0,29.87,North,9,0.0,-999.0,86,-99.99,,,0.01,weatherlink.com 1.10,2013-02-04 21:36:00,
2013-02-04 15:51:00,29.6,26.0,29.88,North,5,0.0,-999.0,86,-99.99,,,0.01,weatherlink.com 1.10,2013-02-04 21:51:00,
2013-02-04 16:06:00,29.4,26.0,29.88,NNE,23,0.0,-999.0,87,-99.99,,,0.01,weatherlink.com 1.10,2013-02-04 22:06:00,
2013-02-04 16:21:00,29.2,26.0,29.89,North,351,0.0,-999.0,87,-99.99,,,0.01,weatherlink.com 1.10,2013-02-04 22:21:00,
2013-02-04 16:36:00,29.1,26.0,29.90,North,350,0.0,-999.0,87,-99.99,,,0.01,weatherlink.com 1.10,2013-02-04 22:36:00,
2013-02-04 16:51:00,29.2,26.0,29.90,North,355,0.0,-999.0,87,-99.99,,,0.01,weatherlink.com 1.10,2013-02-04 22:51:00,
2013-02-04 17:06:00,29.0,25.0,29.91,North,355,0.0,-999.0,86,-99.99,,,0.01,weatherlink.com 1.10,2013-02-04 23:06:00,
2013-02-04 17:21:00,28.4,25.0,29.92,North,5,0.0,-999.0,86,-99.99,,,0.01,weatherlink.com 1.10,2013-02-04 23:21:00,
2013-02-04 17:36:00,28.1,25.0,29.93,North,355,0.0,-999.0,86,-99.99,,,0.01,weatherlink.com 1.10,2013-02-04 23:36:00,
2013-02-04 17:51:00,28.0,24.0,29.94,North,360,0.0,-999.0,86,-99.99,,,0.01,weatherlink.com 1.10,2013-02-04 23:51:00,
2013-02-04 18:06:00,27.5,24.0,29.95,North,360,0.0,-999.0,86,-99.99,,,0.01,weatherlink.com 1.10,2013-02-05 00:06:00,
2013-02-04 18:21:00,26.9,23.0,29.96,North,360,0.0,-999.0,86,-99.99,,,0.01,weatherlink.com 1.10,2013-02-05 00:21:00,
2013-02-04 18:36:00,26.1,23.0,29.96,North,5,0.0,-999.0,86,-99.99,,,0.01,weatherlink.com 1.10,2013-02-05 00:36:00,
2013-02-04 18:51:00,24.9,21.0,29.96,North,360,0.0,-999.0,86,-99.99,,,0.01,weatherlink.com 1.10,2013-02-05 00:51:00,
2013-02-04 19:06:00,24.3,21.0,29.96,North,360,0.0,-999.0,87,-99.99,,,0.01,weatherlink.com 1.10,2013-02-05 01:06:00,
2013-02-04 19:21:00,23.7,21.0,29.97,North,355,0.0,-999.0,88,-99.99,,,0.01,weatherlink.com 1.10,2013-02-05 01:21:00,
2013-02-04 19:36:00,23.1,20.0,29.97,North,5,0.0,-999.0,88,-99.99,,,0.01,weatherlink.com 1.10,2013-02-05 01:36:00,
2013-02-04 19:51:00,22.5,19.0,29.96,North,360,0.0,-999.0,87,-99.99,,,0.01,weatherlink.com 1.10,2013-02-05 01:51:00,
2013-02-04 20:06:00,22.1,19.0,29.97,North,355,0.0,-999.0,88,-99.99,,,0.01,weatherlink.com 1.10,2013-02-05 02:06:00,
2013-02-04 20:21:00,21.2,18.0,29.98,North,350,0.0,-999.0,87,-99.99,,,0.01,weatherlink.com 1.10,2013-02-05 02:21:00,
2013-02-04 20:36:00,20.5,17.0,29.99,North,355,0.0,-999.0,87,-99.99,,,0.01,weatherlink.com 1.10,2013-02-05 02:36:00,
2013-02-04 20:51:00,20.0,17.0,29.99,North,355,0.0,-999.0,87,-99.99,,,0.01,weatherlink.com 1.10,2013-02-05 02:51:00,
2013-02-04 21:06:00,19.5,16.0,29.99,North,355,0.0,-999.0,86,-99.99,,,0.01,weatherlink.com 1.10,2013-02-05 03:06:00,
2013-02-04 21:21:00,19.4,16.0,29.98,North,5,0.0,-999.0,87,-99.99,,,0.01,weatherlink.com 1.10,2013-02-05 03:21:00,
2013-02-04 21:36:00,19.5,16.0,29.97,North,360,0.0,-999.0,87,-99.99,,,0.01,weatherlink.com 1.10,2013-02-05 03:36:00,
2013-02-04 21:51:00,19.6,16.0,29.98,North,355,0.0,-999.0,87,-99.99,,,0.01,weatherlink.com 1.10,2013-02-05 03:51:00,
2013-02-04 22:06:00,19.4,16.0,29.98,NNW,347,0.0,-999.0,87,-99.99,,,0.01,weatherlink.com 1.10,2013-02-05 04:06:00,
2013-02-04 22:21:00,19.1,16.0,29.98,NNW,343,0.0,-999.0,87,-99.99,,,0.01,weatherlink.com 1.10,2013-02-05 04:21:00,
2013-02-04 22:36:00,18.9,16.0,29.98,NNW,344,0.0,-999.0,87,-99.99,,,0.01,weatherlink.com 1.10,2013-02-05 04:36:00,
2013-02-04 22:51:00,18.5,15.0,29.98,NNW,340,0.0,-999.0,87,-99.99,,,0.01,weatherlink.com 1.10,2013-02-05 04:51:00,
2013-02-04 23:06:00,18.2,15.0,29.98,North,350,0.0,-999.0,88,-99.99,,,0.01,weatherlink.com 1.10,2013-02-05 05:06:00,
2013-02-04 23:21:00,17.7,15.0,29.99,North,360,0.0,-999.0,87,-99.99,,,0.01,weatherlink.com 1.10,2013-02-05 05:21:00,
2013-02-04 23:36:00,17.2,14.0,30.00,North,355,0.0,-999.0,87,-99.99,,,0.01,weatherlink.com 1.10,2013-02-05 05:36:00,
2013-02-04 23:51:00,16.8,13.0,29.99,North,355,0.0,-999.0,86,-99.99,,,0.01,weatherlink.com 1.10,2013-02-05 05:51:00,